Regional Weather Roundup
Issued by NWS

Home | Current Version | Previous Version | Text Only | Print | Product List | Glossary Off
Versions: 1 2 3 4 5 6 7 8 9 10 11 12 13 14 15 16 17 18 19 20 21 22 23 24 25 26 27 28 29 30 31 32 33 34 35 36 37 38 39 40 41 42 43 44 45 46 47 48 49 50

000
ASUS45 KSLC 130010
RWRUT

UTAH REGIONAL WEATHER ROUNDUP
NATIONAL WEATHER SERVICE SALT LAKE CITY UT
500 PM MST FRI FEB 12 2016

UTZ001>011-023>025-130100-

NORTHERN UTAH

CITY           SKY/WX    TMP DP  RH WIND       PRES   REMARKS
BRIGHAM CITY   CLOUDY    28  25  89 CALM      30.38S
HILL AFB       MOCLDY    29  28  95 NW6       30.34R FOG     WCI  23
LOGAN          CLOUDY    23  21  92 CALM      30.36R FOG
OGDEN          CLOUDY    28  26  92 NW8       30.35R FOG     WCI  20
PROVO AIRPORT  NOT AVBL
SALT LAKE CITY MOCLDY    31  27  85 N8        30.35S FOG     WCI  23
VERNAL         CLOUDY    30  22  72 E5        30.33F HAZE    WCI  25
WENDOVER       CLOUDY    30  27  86 SE6       30.36S WCI  24
HEBER CITY     PTCLDY    36  23  60 CALM      30.28S
WEST JORDAN    CLEAR     32  28  86 NW6       30.33F WCI  26

$$

UTZ012>022-026-027-130100-

SOUTHERN/CENTRAL UTAH

CITY           SKY/WX    TMP DP  RH WIND       PRES   REMARKS
BLANDING       CLEAR     48  25  40 CALM      30.41S
BRYCE CANYON   SUNNY     45  21  38 CALM      30.37S
CEDAR CITY     MOSUNNY   50  28  42 CALM      30.27F
DELTA          PTSUNNY   23  22  97 CALM      30.33S
HANKSVILLE     PTCLDY    52  32  46 CALM      30.35S
MILFORD        PTSUNNY   22  17  81 N8        30.30F WCI  12
MOAB/CYNLANDS  CLEAR     44  32  62 NW6       30.32F
PRICE          PTCLDY    45  26  47 CALM      30.34F
ST GEORGE      PTCLDY    70  28  21 E3        30.19F
KANAB          SUNNY     64  32  29 E10       30.28F

$$

REGIONAL REPORTS     COLORADO/ARIZONA

CITY           SKY/WX    TMP DP  RH WIND       PRES   REMARKS
CRAIG, CO      CLOUDY    28  22  78 SW5       30.33S WCI  23
GRAND JUNCTION CLOUDY    43  32  65 NW5       30.33S
RIFLE          CLOUDY    45  21  38 CALM      30.33F
MONTROSE       CLEAR     50  28  42 N5        30.34S
CORTEZ         CLEAR     55  24  30 E3        30.33F
PAGE, AZ       SUNNY     57  31  37 NE3       30.28F
GRAND CANYON   SUNNY     64  22  20 NE9       30.33R
KINGMAN        SUNNY     74  20  13 N9        30.18R
FLAGSTAFF      SUNNY     61  18  18 E5        30.34S

$$

REGIONAL REPORTS    NEVADA/IDAHO/WYOMING

CITY           SKY/WX    TMP DP  RH WIND       PRES   REMARKS
LAS VEGAS, NV  MOSUNNY   73  23  15 CALM      30.11S
ELY            PTSUNNY   38  29  70 S8        30.29S WCI  32
ELKO           PTSUNNY   35  24  64 E8        30.30S WCI  29
POCATELLO, ID  CLOUDY    40  28  62 E6        30.27F
BURLEY         PTCLDY    45  34  65 N6        30.22S
EVANSTON, WY   CLOUDY    44  15  31 SW5       30.31S
ROCK SPRINGS   CLEAR     45  21  38 SW13      30.28F
KEMMERER       CLOUDY    41  18  38 NW3       30.31S

$$



USA.gov is the U.S. government's official web portal to all federal, state and local government web resources and services.